�N����,����,�g�[���i���ԁj���x,�g�[�����x,��g�[���i���ցj���x,����
 2003/02/01, 0:00,15.8,41,12.9,13
 2003/02/01, 0:15,15.6,41,12.9,13.1
 2003/02/01, 0:30,15.6,41,12.9,13.1
 2003/02/01, 0:45,15.6,41,12.9,13.1
 2003/02/01, 1:00,15.6,42,12.8,13.2
 2003/02/01, 1:15,15.6,42,12.8,13.2
 2003/02/01, 1:30,15.6,42,12.8,13.2
 2003/02/01, 1:45,15.6,42,12.9,13.3
 2003/02/01, 2:00,15.6,41,12.8,13.3
 2003/02/01, 2:15,15.8,41,12.8,13.3
 2003/02/01, 2:30,15.7,41,12.8,13.4
 2003/02/01, 2:45,15.8,41,12.7,13.4
 2003/02/01, 3:00,15.6,42,12.8,13.4
 2003/02/01, 3:15,15.7,42,12.7,13.5
 2003/02/01, 3:30,15.7,42,12.8,13.5
 2003/02/01, 3:45,15.6,43,12.7,13.5
 2003/02/01, 4:00,15.6,42,12.7,13.6
 2003/02/01, 4:15,15.7,42,12.6,13.6
 2003/02/01, 4:30,15.7,42,12.7,13.6
 2003/02/01, 4:45,15.7,41,12.7,13.6
 2003/02/01, 5:00,15.6,42,12.7,13.7
 2003/02/01, 5:15,15.6,42,12.8,13.7
 2003/02/01, 5:30,15.6,42,12.8,13.7
 2003/02/01, 5:45,15.6,42,12.8,13.8
 2003/02/01, 6:00,15.6,43,12.8,13.8
 2003/02/01, 6:15,15.6,43,12.8,13.8
 2003/02/01, 6:30,15.6,43,12.8,13.8
 2003/02/01, 6:45,15.6,43,12.8,13.9
 2003/02/01, 7:00,15.6,43,12.7,13.9
 2003/02/01, 7:15,15.6,42,12.7,13.9
 2003/02/01, 7:30,15.6,42,12.8,13.9
 2003/02/01, 7:45,15.6,42,12.7,14
 2003/02/01, 8:00,15.7,43,12.8,14
 2003/02/01, 8:15,15.9,43,12.8,7.8
 2003/02/01, 8:30,16,42,13,7.6
 2003/02/01, 8:45,16.2,41,12.9,8.1
 2003/02/01, 9:00,16.2,38,12.9,7.9
 2003/02/01, 9:15,16.2,41,13.1,7.9
 2003/02/01, 9:30,16.1,37,13.3,8
 2003/02/01, 9:45,16.5,38,13.1,8.1
 2003/02/01,10:00,16.4,40,13.1,8.1
 2003/02/01,10:15,16.3,41,13,8.2
 2003/02/01,10:30,16.2,40,12.9,8.3
 2003/02/01,10:45,16.1,39,12.9,8.4
 2003/02/01,11:00,15.9,39,13,8.5
 2003/02/01,11:15,15.8,38,12.8,8.5
 2003/02/01,11:30,15.8,37,12.7,8.6
 2003/02/01,11:45,15.7,37,12.8,8.7
 2003/02/01,12:00,15.7,37,12.7,8.8
 2003/02/01,12:15,15.5,36,12.6,8.8
 2003/02/01,12:30,15.6,37,12.7,8.9
 2003/02/01,12:45,15.5,38,12.8,9
 2003/02/01,13:00,15.5,38,12.8,9.1
 2003/02/01,13:15,15.5,38,12.9,9.1
 2003/02/01,13:30,15.5,39,13,9.2
 2003/02/01,13:45,15.4,39,13.1,9.3
 2003/02/01,14:00,15.4,40,13.2,9.4
 2003/02/01,14:15,15.5,40,13.1,9.4
 2003/02/01,14:30,15.4,40,13.1,9.5
 2003/02/01,14:45,15.4,40,12.9,9.6
 2003/02/01,15:00,15.4,40,12.9,9.6
 2003/02/01,15:15,15.4,40,12.9,9.7
 2003/02/01,15:30,15.4,40,12.9,9.8
 2003/02/01,15:45,15.4,40,13,9.8
 2003/02/01,16:00,15.3,40,12.9,9.9
 2003/02/01,16:15,15.3,40,13,10
 2003/02/01,16:30,15.3,40,12.9,10.1
 2003/02/01,16:45,15.4,40,12.9,10.2
 2003/02/01,17:00,15.3,40,12.9,10.2
 2003/02/01,17:15,15.2,41,13,10.3
 2003/02/01,17:30,15.2,41,12.8,10.4
 2003/02/01,17:45,15.2,41,12.8,10.4
 2003/02/01,18:00,15.2,41,12.8,10.5
 2003/02/01,18:15,15.3,42,12.8,10.6
 2003/02/01,18:30,15.3,42,12.9,10.7
 2003/02/01,18:45,15.3,43,12.9,10.8
 2003/02/01,19:00,15.2,43,13.1,10.8
 2003/02/01,19:15,15.3,43,13,10.9
 2003/02/01,19:30,15.2,43,13,11
 2003/02/01,19:45,15.2,43,13.1,11
 2003/02/01,20:00,15.3,43,12.9,11.1
 2003/02/01,20:15,15.2,43,12.9,11.2
 2003/02/01,20:30,15.3,43,12.9,11.2
 2003/02/01,20:45,15.3,43,12.9,11.3
 2003/02/01,21:00,15.1,43,12.9,11.4
 2003/02/01,21:15,15.2,43,13,11.4
 2003/02/01,21:30,15.2,43,13,11.5
 2003/02/01,21:45,15.2,43,12.8,11.5
 2003/02/01,22:00,15.1,43,12.9,11.6
 2003/02/01,22:15,15.1,43,12.8,11.7
 2003/02/01,22:30,15.2,43,12.7,11.7
 2003/02/01,22:45,15.2,43,12.8,11.8
 2003/02/01,23:00,15.1,43,12.8,11.8
 2003/02/01,23:15,15.1,43,12.8,11.9
 2003/02/01,23:30,15.2,43,12.7,11.9
 2003/02/01,23:45,15.1,43,12.8,12
 2003/02/02, 0:00,15.1,43,12.9,12
 2003/02/02, 0:15,15.1,43,12.9,12.1
 2003/02/02, 0:30,15.1,43,12.8,12.2
 2003/02/02, 0:45,15.1,43,12.9,12.2
 2003/02/02, 1:00,15.1,43,12.9,12.3
 2003/02/02, 1:15,15.1,43,12.8,12.3
 2003/02/02, 1:30,15.1,43,12.9,12.3
 2003/02/02, 1:45,15.1,43,12.8,12.4
 2003/02/02, 2:00,15.2,43,13,12.4
 2003/02/02, 2:15,15.2,43,13,12.5
 2003/02/02, 2:30,15.1,43,13,12.5
 2003/02/02, 2:45,15.1,43,12.9,12.6
 2003/02/02, 3:00,15.1,43,12.9,12.6
 2003/02/02, 3:15,15.2,43,13,12.7
 2003/02/02, 3:30,15.1,43,13,12.7
 2003/02/02, 3:45,15.2,43,13.1,12.8
 2003/02/02, 4:00,15.3,43,13.1,12.8
 2003/02/02, 4:15,15.3,43,13,12.8
 2003/02/02, 4:30,15.3,43,13.1,12.9
 2003/02/02, 4:45,15.2,43,13.1,12.9
 2003/02/02, 5:00,15.2,43,13.1,13
 2003/02/02, 5:15,15.3,43,13.1,13
 2003/02/02, 5:30,15.2,43,13.1,13
 2003/02/02, 5:45,15.2,43,13.2,13.1
 2003/02/02, 6:00,15.2,43,13,13.1
 2003/02/02, 6:15,15.2,43,13.1,13.1
 2003/02/02, 6:30,15.3,43,13,13.2
 2003/02/02, 6:45,15.3,43,13.1,13.2
 2003/02/02, 7:00,15.3,43,13,13.3
 2003/02/02, 7:15,15.3,43,13.1,13.3
 2003/02/02, 7:30,15.3,43,13,13.3
 2003/02/02, 7:45,15.2,43,13,13.4
 2003/02/02, 8:00,15.2,42,13,13.4
 2003/02/02, 8:15,15.4,43,13.2,13.4
 2003/02/02, 8:30,15.6,42,13.1,13.5
 2003/02/02, 8:45,15.6,42,13.3,13.5
 2003/02/02, 9:00,15.8,42,13.3,13.5
 2003/02/02, 9:15,15.8,42,13.2,13.6
 2003/02/02, 9:30,15.9,41,13.3,13.6
 2003/02/02, 9:45,16,40,13.2,13.6
 2003/02/02,10:00,15.9,40,13.2,13.6
 2003/02/02,10:15,15.9,39,13.3,13.7
 2003/02/02,10:30,15.8,39,13.2,13.7
 2003/02/02,10:45,15.8,39,13.4,13.7
 2003/02/02,11:00,15.9,39,13.3,13.8
 2003/02/02,11:15,15.6,39,13.1,13.8
 2003/02/02,11:30,15.6,38,13.2,13.8
 2003/02/02,11:45,15.6,38,13,13.9
 2003/02/02,12:00,15.7,38,13.1,13.9
 2003/02/02,12:15,15.6,38,13.1,13.9
 2003/02/02,12:30,15.5,38,13.1,13.9
 2003/02/02,12:45,15.5,38,13.1,14
 2003/02/02,13:00,15.5,37,13,14
 2003/02/02,13:15,15.5,38,13.2,14
 2003/02/02,13:30,15.5,39,13.3,14
 2003/02/02,13:45,15.5,38,13.3,9.1
 2003/02/02,14:00,15.6,38,13.2,9.1
 2003/02/02,14:15,15.8,40,13.3,9.2
 2003/02/02,14:30,15.8,41,13.3,9.2
 2003/02/02,14:45,15.9,41,13.4,9.3
 2003/02/02,15:00,16,42,13.3,8
 2003/02/02,15:15,16,41,13.2,8.1
 2003/02/02,15:30,16,40,13.2,8.1
 2003/02/02,15:45,16,41,13.2,8.2
 2003/02/02,16:00,16,40,13.4,8.3
 2003/02/02,16:15,16.1,39,13.5,8.8
 2003/02/02,16:30,16,39,13.7,8.6
 2003/02/02,16:45,15.7,37,13.2,8.6
 2003/02/02,17:00,15.8,37,13.1,8.7
 2003/02/02,17:15,15.8,37,13.1,8.7
 2003/02/02,17:30,15.8,37,12.9,8.8
 2003/02/02,17:45,15.8,37,12.9,8.9
 2003/02/02,18:00,15.8,37,13.1,8.9
 2003/02/02,18:15,15.8,37,13.1,9
 2003/02/02,18:30,15.8,38,13.2,9.1
 2003/02/02,18:45,15.9,39,13,9.2
 2003/02/02,19:00,15.2,31,12.9,9.2
 2003/02/02,19:15,15.5,36,13,9.3
 2003/02/02,19:30,15.7,37,13.2,9.4
 2003/02/02,19:45,15.9,38,13.1,9.5
 2003/02/02,20:00,15.9,39,13.1,9.5
 2003/02/02,20:15,16,40,13.1,9.6
 2003/02/02,20:30,16.1,41,13.1,9.7
 2003/02/02,20:45,16.2,44,13.1,9.7
 2003/02/02,21:00,16.3,44,13.1,9.8
 2003/02/02,21:15,16.3,44,13.1,9.9
 2003/02/02,21:30,16.4,44,13.2,10
 2003/02/02,21:45,16.4,43,13.1,10
 2003/02/02,22:00,16.4,42,13.2,10.1
 2003/02/02,22:15,16.4,42,13.1,10.2
 2003/02/02,22:30,16.4,42,13.1,10.3
 2003/02/02,22:45,16.3,41,13.1,10.4
 2003/02/02,23:00,16.3,41,13.1,10.4
 2003/02/02,23:15,16.3,41,13.1,10.5
 2003/02/02,23:30,16.4,42,13.1,10.6
 2003/02/02,23:45,16.3,41,13.1,10.7
 2003/02/03, 0:00,16.3,41,13.1,10.8
 2003/02/03, 0:15,16.3,42,13.1,10.4
 2003/02/03, 0:30,16.3,42,13.1,10.4
 2003/02/03, 0:45,16.3,42,13,10.5
 2003/02/03, 1:00,16.3,42,13,10.5
 2003/02/03, 1:15,16.3,42,13,10.6
 2003/02/03, 1:30,16.2,41,12.9,10.6
 2003/02/03, 1:45,16.2,40,12.9,10.7
 2003/02/03, 2:00,16.2,40,12.9,10.8
 2003/02/03, 2:15,16.2,40,12.9,10.8
 2003/02/03, 2:30,16.2,40,12.9,10.9
 2003/02/03, 2:45,16.2,40,12.9,11
 2003/02/03, 3:00,16.2,39,12.9,11
 2003/02/03, 3:15,16.2,39,12.9,11.1
 2003/02/03, 3:30,16.1,39,12.8,11.1
 2003/02/03, 3:45,16.1,39,12.6,11.2
 2003/02/03, 4:00,16.1,39,12.6,11.3
 2003/02/03, 4:15,16,38,12.5,11.3
 2003/02/03, 4:30,16,38,12.7,11.4
 2003/02/03, 4:45,16,39,12.8,11.4
 2003/02/03, 5:00,16,39,12.8,11.5
 2003/02/03, 5:15,16.1,40,12.9,11.6
 2003/02/03, 5:30,16,40,12.9,11.6
 2003/02/03, 5:45,16,41,13,11.7
 2003/02/03, 6:00,16,41,13.1,11.7
 2003/02/03, 6:15,16.1,42,13.2,11.8
 2003/02/03, 6:30,16.1,42,13.1,11.8
 2003/02/03, 6:45,16,42,13,11.9
 2003/02/03, 7:00,15.9,42,13,11.9
 2003/02/03, 7:15,15.6,40,13,8.5
 2003/02/03, 7:30,16.1,40,12.9,8.4
 2003/02/03, 7:45,16.3,38,13.1,8.4
 2003/02/03, 8:00,16.3,40,13.1,8.4
 2003/02/03, 8:15,16,39,13.1,8.5
 2003/02/03, 8:30,15.9,38,12.9,8.6
 2003/02/03, 8:45,15.8,39,13.2,8.6
 2003/02/03, 9:00,15.8,40,13.3,8.7
 2003/02/03, 9:15,15.9,41,13.4,8.8
 2003/02/03, 9:30,16.1,42,13.6,8.8
 2003/02/03, 9:45,16.1,42,13.6,8.9
 2003/02/03,10:00,16.3,42,13.8,9
 2003/02/03,10:15,16.2,41,13.7,9.1
 2003/02/03,10:30,16.1,41,13.6,9.2
 2003/02/03,10:45,16.1,40,13.6,9.2
 2003/02/03,11:00,16.1,40,13.6,9.3
 2003/02/03,11:15,16,40,13.6,9.4
 2003/02/03,11:30,16,40,13.5,9.4
 2003/02/03,11:45,16,40,13.4,9.5
 2003/02/03,12:00,16,39,13.5,9.6
 2003/02/03,12:15,15.9,39,13.5,9.7
 2003/02/03,12:30,15.9,39,13.5,9.7
 2003/02/03,12:45,16,39,13.5,9.8
 2003/02/03,13:00,16,39,13.4,9.9
 2003/02/03,13:15,15.8,40,13.4,10
 2003/02/03,13:30,15.8,40,13.4,10
 2003/02/03,13:45,15.8,39,13.3,10.1
 2003/02/03,14:00,15.8,39,13.3,10.2
 2003/02/03,14:15,15.8,39,13.4,10.3
 2003/02/03,14:30,15.8,39,13.3,10.4
 2003/02/03,14:45,15.8,39,13.4,10.4
 2003/02/03,15:00,15.8,39,13.4,10.5
 2003/02/03,15:15,15.8,39,13.5,10.6
 2003/02/03,15:30,15.7,39,13.4,10.7
 2003/02/03,15:45,15.7,38,13.5,10.8
 2003/02/03,16:00,15.7,38,13.5,10.8
 2003/02/03,16:15,15.7,38,13.3,10.9
 2003/02/03,16:30,15.7,38,13.3,11
 2003/02/03,16:45,15.6,38,13.3,11
 2003/02/03,17:00,15.6,38,13.2,11.1
 2003/02/03,17:15,15.7,38,13.2,11.2
 2003/02/03,17:30,15.5,38,13.3,11.3
 2003/02/03,17:45,15.5,38,13.2,11.3
 2003/02/03,18:00,15.5,38,13.1,11.4
 2003/02/03,18:15,15.5,38,13.2,11.5
 2003/02/03,18:30,15.5,38,13.1,11.5
 2003/02/03,18:45,15.5,38,13.3,11.6
 2003/02/03,19:00,15.5,39,13.3,11.6
 2003/02/03,19:15,15.5,39,13.4,11.7
 2003/02/03,19:30,15.5,39,13.5,11.8
 2003/02/03,19:45,15.5,39,13.6,11.8
 2003/02/03,20:00,15.6,42,13.8,11.9
 2003/02/03,20:15,15.5,43,13.7,11.9
 2003/02/03,20:30,15.6,42,13.5,12
 2003/02/03,20:45,15.5,41,13.4,12.1
 2003/02/03,21:00,15.5,41,13.4,12.1
 2003/02/03,21:15,15.6,41,13.4,12.2
 2003/02/03,21:30,15.5,41,13.5,12.2
 2003/02/03,21:45,15.5,41,13.4,12.3
 2003/02/03,22:00,15.7,41,13.4,10.7
 2003/02/03,22:15,15.8,43,13.4,10.8
 2003/02/03,22:30,15.9,42,13.7,10.8
 2003/02/03,22:45,15.9,42,13.4,10.9
 2003/02/03,23:00,15.9,42,13.3,11
 2003/02/03,23:15,16,42,13.3,11
 2003/02/03,23:30,16,42,13.3,11.1
 2003/02/03,23:45,16,42,13.3,11.1
 2003/02/04, 0:00,16,42,13.2,11.2
 2003/02/04, 0:15,16,42,13.2,11.3
 2003/02/04, 0:30,16.1,42,13.3,11.3
 2003/02/04, 0:45,16.1,43,13.3,11.4
 2003/02/04, 1:00,16.1,43,13.2,11.4
 2003/02/04, 1:15,16.1,43,13.3,11.5
 2003/02/04, 1:30,16.1,43,13.3,11.5
 2003/02/04, 1:45,16.1,43,13.3,11.6
 2003/02/04, 2:00,16.1,43,13.3,11.7
 2003/02/04, 2:15,16.2,43,13.3,11.7
 2003/02/04, 2:30,16.3,43,13.3,11.8
 2003/02/04, 2:45,16.2,44,13.3,11.8
 2003/02/04, 3:00,16.1,44,13.3,11.9
 2003/02/04, 3:15,16.1,43,13.4,11.9
 2003/02/04, 3:30,16.1,44,13.5,12
 2003/02/04, 3:45,16.1,43,13.5,12.1
 2003/02/04, 4:00,16.1,43,13.4,12.1
 2003/02/04, 4:15,16.1,43,13.4,12.2
 2003/02/04, 4:30,16.1,44,13.4,12.2
 2003/02/04, 4:45,16.1,44,13.5,12.3
 2003/02/04, 5:00,16,44,13.5,12.3
 2003/02/04, 5:15,16,44,13.5,12.4
 2003/02/04, 5:30,16,44,13.5,12.4
 2003/02/04, 5:45,16,44,13.5,12.5
 2003/02/04, 6:00,16,44,13.4,12.5
 2003/02/04, 6:15,15.9,44,13.5,12.6
 2003/02/04, 6:30,15.9,45,13.4,12.6
 2003/02/04, 6:45,15.9,45,13.5,12.7
 2003/02/04, 7:00,16.1,45,13.4,8.8
 2003/02/04, 7:15,16.2,45,13.3,8.6
 2003/02/04, 7:30,15.9,42,13.2,8.7
 2003/02/04, 7:45,16.4,43,13.8,8.7
 2003/02/04, 8:00,16.4,46,13.9,8.8
 2003/02/04, 8:15,16.7,47,14,8.9
 2003/02/04, 8:30,16.8,47,14.1,9
 2003/02/04, 8:45,16.8,47,14.2,9
 2003/02/04, 9:00,16.8,47,14.2,9.1
 2003/02/04, 9:15,16.8,46,14.4,9.2
 2003/02/04, 9:30,16.8,46,14.4,9.3
 2003/02/04, 9:45,16.8,46,14.3,9.4
 2003/02/04,10:00,16.9,46,14.3,9.4
 2003/02/04,10:15,16.8,46,14.3,9.5
 2003/02/04,10:30,16.6,46,14.3,9.6
 2003/02/04,10:45,16.6,45,14.3,9.7
 2003/02/04,11:00,16.5,45,14.2,9.7
 2003/02/04,11:15,16.4,45,14.3,9.8
 2003/02/04,11:30,16.4,44,14.2,9.9
 2003/02/04,11:45,16.4,44,14.2,10
 2003/02/04,12:00,16.4,44,14.3,10
 2003/02/04,12:15,16.3,44,14.3,10.1
 2003/02/04,12:30,16.2,45,14.3,10.2
 2003/02/04,12:45,16.3,45,14.3,10.3
 2003/02/04,13:00,16.2,44,14.4,10.4
 2003/02/04,13:15,16.3,44,14.4,10.5
 2003/02/04,13:30,16.2,45,14.4,10.6
 2003/02/04,13:45,16.3,45,14.4,10.7
 2003/02/04,14:00,16.2,45,14.4,10.8
 2003/02/04,14:15,16.3,45,14.5,10.8
 2003/02/04,14:30,16.2,45,14.4,10.9
 2003/02/04,14:45,16.2,44,14.4,11
 2003/02/04,15:00,16.3,43,14.4,11
 2003/02/04,15:15,16.2,42,14.4,11.1
 2003/02/04,15:30,16.3,42,14.5,11.2
 2003/02/04,15:45,16.2,42,14.4,11.3
 2003/02/04,16:00,16.2,43,14.4,11.4
 2003/02/04,16:15,16.1,44,14.4,11.4
 2003/02/04,16:30,16.1,43,14.4,11.5
 2003/02/04,16:45,16.1,43,14.4,11.6
 2003/02/04,17:00,16.1,43,14.4,11.6
 2003/02/04,17:15,16.1,43,14.4,11.7
 2003/02/04,17:30,16.1,43,14.3,11.8
 2003/02/04,17:45,16.1,43,14.3,11.9
 2003/02/04,18:00,16.1,44,14.2,11.9
 2003/02/04,18:15,16.1,43,14.2,12
 2003/02/04,18:30,16,44,14.2,12
 2003/02/04,18:45,16.1,44,14.2,12.1
 2003/02/04,19:00,16.1,44,14.2,12.2
 2003/02/04,19:15,16.1,44,14.2,12.2
 2003/02/04,19:30,16,44,14.2,12.3
 2003/02/04,19:45,16,44,14.1,12.3
 2003/02/04,20:00,16,44,14.1,12.4
 2003/02/04,20:15,16,44,14.1,12.5
 2003/02/04,20:30,16.1,44,14.1,12.5
 2003/02/04,20:45,16.1,43,14.1,12.6
 2003/02/04,21:00,16,44,14.1,12.6
 2003/02/04,21:15,16,44,14.1,12.7
 2003/02/04,21:30,16.1,44,14.1,12.7
 2003/02/04,21:45,15.9,44,14.1,12.8
 2003/02/04,22:00,15.9,44,14.1,12.8
 2003/02/04,22:15,15.9,44,14.2,12.9
 2003/02/04,22:30,15.9,44,14.2,12.9
 2003/02/04,22:45,15.9,44,14.2,13
 2003/02/04,23:00,15.9,44,14.3,13
 2003/02/04,23:15,16,44,14.3,13.1
 2003/02/04,23:30,16,43,14,13.1
 2003/02/04,23:45,16.1,43,14,13.2
 2003/02/05, 0:00,16.3,43,14,13.2
 2003/02/05, 0:15,16.3,44,14,13.3
 2003/02/05, 0:30,16.4,45,14.1,13.3
 2003/02/05, 0:45,16.6,46,13.9,13.4
 2003/02/05, 1:00,16.6,47,13.9,10.4
 2003/02/05, 1:15,16.6,46,13.9,10.6
 2003/02/05, 1:30,16.6,46,13.9,10.7
 2003/02/05, 1:45,16.6,46,14,10.7
 2003/02/05, 2:00,16.6,45,13.8,10.8
 2003/02/05, 2:15,16.6,46,14,10.9
 2003/02/05, 2:30,16.6,46,13.9,10.9
 2003/02/05, 2:45,16.6,46,13.9,11
 2003/02/05, 3:00,16.6,46,13.9,11.1
 2003/02/05, 3:15,16.6,46,13.8,11.1
 2003/02/05, 3:30,16.7,46,13.9,11.2
 2003/02/05, 3:45,16.6,46,14,11.3
 2003/02/05, 4:00,16.7,46,13.9,11.3
 2003/02/05, 4:15,16.7,46,13.9,11.4
 2003/02/05, 4:30,16.7,46,13.8,11.5
 2003/02/05, 4:45,16.6,46,13.8,11.5
 2003/02/05, 5:00,16.6,46,13.8,11.6
 2003/02/05, 5:15,16.6,46,13.9,11.7
 2003/02/05, 5:30,16.6,46,13.9,11.7
 2003/02/05, 5:45,16.7,46,13.8,11.8
 2003/02/05, 6:00,16.6,46,14,11.9
 2003/02/05, 6:15,16.6,47,13.9,11.9
 2003/02/05, 6:30,16.6,46,13.9,12
 2003/02/05, 6:45,16.6,47,13.8,12.1
 2003/02/05, 7:00,16.6,47,13.8,12.1
 2003/02/05, 7:15,16.7,46,13.8,9.9
 2003/02/05, 7:30,16.7,47,13.8,9.9
 2003/02/05, 7:45,16.9,47,13.9,9.9
 2003/02/05, 8:00,17,47,13.8,10
 2003/02/05, 8:15,17.3,47,14,10.1
 2003/02/05, 8:30,17.5,46,14,10.1
 2003/02/05, 8:45,17.7,46,13.9,8.5
 2003/02/05, 9:00,17.6,44,14.2,8.6
 2003/02/05, 9:15,17.3,44,14.3,8.5
 2003/02/05, 9:30,17.3,40,14.6,8.6
 2003/02/05, 9:45,16.7,34,14.3,8.6
 2003/02/05,10:00,16.2,39,13.7,8.7
 2003/02/05,10:15,16.4,39,13.8,8.7
 2003/02/05,10:30,16.4,40,14,8.8
 2003/02/05,10:45,16.5,41,14,8.9
 2003/02/05,11:00,16.3,43,14.1,9
 2003/02/05,11:15,16.4,43,14.1,9.1
 2003/02/05,11:30,16.4,43,14.2,9.1
 2003/02/05,11:45,16.4,45,14,9.2
 2003/02/05,12:00,16.6,46,14.1,9.3
 2003/02/05,12:15,16.9,46,13.9,9.4
 2003/02/05,12:30,16.9,46,14.1,9.5
 2003/02/05,12:45,17,45,14.2,9.5
 2003/02/05,13:00,17,44,14.1,9.8
 2003/02/05,13:15,16.9,43,13.9,9.8
 2003/02/05,13:30,16.9,43,13.9,9.8
 2003/02/05,13:45,16.9,43,13.9,9.9
 2003/02/05,14:00,17,43,14,9.9
 2003/02/05,14:15,16.9,43,14,10
 2003/02/05,14:30,16.8,43,14.1,10.1
 2003/02/05,14:45,16.8,43,14,10.2
 2003/02/05,15:00,16.8,43,14.1,10.7
 2003/02/05,15:15,16.9,42,14.2,10.7
 2003/02/05,15:30,16.8,42,14.3,10.8
 2003/02/05,15:45,16.8,42,14.3,10.8
 2003/02/05,16:00,16.7,42,14.3,10.9
 2003/02/05,16:15,16.5,42,14.4,10.9
 2003/02/05,16:30,16.4,42,14.1,11
 2003/02/05,16:45,16.4,42,14.1,11.1
 2003/02/05,17:00,16.3,42,14,11.1
 2003/02/05,17:15,16.4,42,13.9,11.2
 2003/02/05,17:30,16.3,42,13.9,11.3
 2003/02/05,17:45,16.3,42,13.9,11.3
 2003/02/05,18:00,16.4,43,12.7,9.3
 2003/02/05,18:15,16.1,39,13.5,9.3
 2003/02/05,18:30,16.3,40,13.8,9.4
 2003/02/05,18:45,16.4,41,13.8,9.4
 2003/02/05,19:00,16.4,39,13.8,9.5
 2003/02/05,19:15,16.5,38,13.8,9.6
 2003/02/05,19:30,16.4,37,13.7,9.6
 2003/02/05,19:45,16.5,38,13.9,9.7
 2003/02/05,20:00,16.4,39,13.9,9.4
 2003/02/05,20:15,16.2,40,14.1,9.4
 2003/02/05,20:30,16.2,42,14.1,9.5
 2003/02/05,20:45,16.3,43,14,9.6
 2003/02/05,21:00,16.3,43,14,9.6
 2003/02/05,21:15,16.1,44,14.1,9.7
 2003/02/05,21:30,16.2,44,14,9.7
 2003/02/05,21:45,16.3,43,14,9.8
 2003/02/05,22:00,16.4,43,13.9,9.9
 2003/02/05,22:15,16.4,43,13.8,9.9
 2003/02/05,22:30,16.5,43,13.9,10
 2003/02/05,22:45,16.5,43,13.9,10.1
 2003/02/05,23:00,16.5,43,14,10.2
 2003/02/05,23:15,16.6,43,14,9.3
 2003/02/05,23:30,16.7,43,13.8,9.4
 2003/02/05,23:45,16.6,43,13.8,9.5
 2003/02/06, 0:00,16.8,43,13.7,9.5
 2003/02/06, 0:15,16.7,43,13.6,9.6
 2003/02/06, 0:30,16.8,44,13.6,9.6
 2003/02/06, 0:45,16.8,44,13.7,9.7
 2003/02/06, 1:00,16.8,44,13.6,9.8
 2003/02/06, 1:15,16.7,44,13.6,9.8
 2003/02/06, 1:30,16.7,44,13.6,9.9
 2003/02/06, 1:45,16.7,44,13.5,10
 2003/02/06, 2:00,16.7,44,13.5,10.1
 2003/02/06, 2:15,16.7,44,13.4,10.2
 2003/02/06, 2:30,16.8,44,13.4,10.2
 2003/02/06, 2:45,16.7,44,13.4,10.3
 2003/02/06, 3:00,16.8,43,13.4,10.4
 2003/02/06, 3:15,16.7,44,13.5,10.5
 2003/02/06, 3:30,16.7,44,13.3,10.6
 2003/02/06, 3:45,16.7,44,13.4,10.6
 2003/02/06, 4:00,16.7,44,13.5,10.7
 2003/02/06, 4:15,16.8,44,13.4,10.8
 2003/02/06, 4:30,16.6,44,13.4,10.9
 2003/02/06, 4:45,16.6,43,13.5,11
 2003/02/06, 5:00,16.6,43,13.5,11
 2003/02/06, 5:15,16.6,43,13.4,11.1
 2003/02/06, 5:30,16.6,43,13.5,11.2
 2003/02/06, 5:45,16.6,43,13.5,11.3
 2003/02/06, 6:00,16.7,43,13.3,11.3
 2003/02/06, 6:15,16.6,43,13.4,11.4
 2003/02/06, 6:30,16.6,43,13.5,11.5
 2003/02/06, 6:45,16.6,43,13.5,11.5
 2003/02/06, 7:00,16.7,43,13.4,9.1
 2003/02/06, 7:15,16.8,44,13.4,9.1
 2003/02/06, 7:30,17.1,44,13.5,8.8
 2003/02/06, 7:45,17.2,41,13.4,8.8
 2003/02/06, 8:00,17.2,41,13.3,8.9
 2003/02/06, 8:15,17.2,40,13.3,8.9
 2003/02/06, 8:30,16.9,37,13.3,9
 2003/02/06, 8:45,17,38,13.6,9.1
 2003/02/06, 9:00,17,41,13.6,9.2
 2003/02/06, 9:15,17.2,41,13.7,9.3
 2003/02/06, 9:30,17,42,13.8,9.3
 2003/02/06, 9:45,17,42,13.7,9.4
 2003/02/06,10:00,17,42,13.5,9.5
 2003/02/06,10:15,16.9,42,13.6,9.5
 2003/02/06,10:30,16.9,41,13.6,9.6
 2003/02/06,10:45,16.8,40,13.6,9.7
 2003/02/06,11:00,16.8,40,13.7,9.8
 2003/02/06,11:15,16.9,40,13.7,9.8
 2003/02/06,11:30,16.7,40,13.6,9.9
 2003/02/06,11:45,16.7,40,13.7,10
 2003/02/06,12:00,16.7,39,13.7,10.1
 2003/02/06,12:15,16.7,39,13.6,10.2
 2003/02/06,12:30,16.7,39,13.7,10.2
 2003/02/06,12:45,16.6,39,13.8,10.3
 2003/02/06,13:00,16.7,39,13.8,10.4
 2003/02/06,13:15,16.6,39,13.6,10.5
 2003/02/06,13:30,16.6,39,13.6,10.6
 2003/02/06,13:45,16.6,38,13.7,10.7
 2003/02/06,14:00,16.6,39,13.6,10.7
 2003/02/06,14:15,16.5,38,13.7,10.8
 2003/02/06,14:30,16.6,38,13.7,10.9
 2003/02/06,14:45,16.5,38,13.8,11
 2003/02/06,15:00,16.5,38,13.8,11.1
 2003/02/06,15:15,16.5,38,13.9,11.1
 2003/02/06,15:30,16.4,39,13.8,11.2
 2003/02/06,15:45,16.6,38,14,11.3
 2003/02/06,16:00,16.5,38,14,11.4
 2003/02/06,16:15,16.5,38,14.2,11.4
 2003/02/06,16:30,16.5,38,14.3,11.5
 2003/02/06,16:45,16.5,38,14.2,11.6
 2003/02/06,17:00,16.5,38,14.2,11.6
 2003/02/06,17:15,16.5,38,14.3,11.7
 2003/02/06,17:30,16.4,38,14.1,11.8
 2003/02/06,17:45,16.5,38,14.1,11.8
 2003/02/06,18:00,16.4,39,14.2,11.9
 2003/02/06,18:15,16.4,40,14.1,12
 2003/02/06,18:30,16.4,40,14.1,12
 2003/02/06,18:45,16.4,40,14.1,12.1
 2003/02/06,19:00,16.4,41,14.1,12.1
 2003/02/06,19:15,16.4,41,14.1,12.2
 2003/02/06,19:30,16.4,41,14.1,12.3
 2003/02/06,19:45,16.4,41,14.1,12.3
 2003/02/06,20:00,16.3,41,14.1,12.4
 2003/02/06,20:15,16.3,40,14.1,12.4
 2003/02/06,20:30,16.3,40,14.1,12.5
 2003/02/06,20:45,16.3,41,14.1,12.6
 2003/02/06,21:00,16.3,41,14,12.6
 2003/02/06,21:15,16.3,41,14,12.7
 2003/02/06,21:30,16.3,41,13.9,12.7
 2003/02/06,21:45,16.3,42,13.9,12.8
 2003/02/06,22:00,16.3,42,13.9,12.8
 2003/02/06,22:15,16.4,42,13.9,12.9
 2003/02/06,22:30,16.3,42,13.9,12.9
 2003/02/06,22:45,16.2,42,13.8,13
 2003/02/06,23:00,16.2,42,13.9,13
 2003/02/06,23:15,16.4,42,13.8,13.1
 2003/02/06,23:30,16.6,42,13.8,13.1
 2003/02/06,23:45,16.6,42,13.8,13.2
 2003/02/07, 0:00,16.6,42,13.8,13.2
 2003/02/07, 0:15,16.6,42,13.8,13.2
 2003/02/07, 0:30,16.7,42,13.8,13.3
 2003/02/07, 0:45,16.7,42,13.8,13.3
 2003/02/07, 1:00,16.8,42,13.7,13.4
 2003/02/07, 1:15,16.7,42,13.7,13.4
 2003/02/07, 1:30,16.8,43,13.6,13.5
 2003/02/07, 1:45,16.9,42,13.6,13.5
 2003/02/07, 2:00,16.8,42,13.6,13.5
 2003/02/07, 2:15,16.8,43,13.6,13.6
 2003/02/07, 2:30,16.7,43,13.7,13.6
 2003/02/07, 2:45,16.7,43,13.8,13.7
 2003/02/07, 3:00,16.7,43,13.7,13.7
 2003/02/07, 3:15,16.6,43,13.8,13.7
 2003/02/07, 3:30,16.6,43,13.8,13.8
 2003/02/07, 3:45,16.6,42,13.8,13.8
 2003/02/07, 4:00,16.6,42,13.8,13.9
 2003/02/07, 4:15,16.6,43,13.6,13.9
 2003/02/07, 4:30,16.6,43,13.7,13.9
 2003/02/07, 4:45,16.5,43,13.8,14
 2003/02/07, 5:00,16.6,42,13.8,14
 2003/02/07, 5:15,16.5,42,13.8,14
 2003/02/07, 5:30,16.4,42,13.8,14.1
 2003/02/07, 5:45,16.5,42,13.8,14.1
 2003/02/07, 6:00,16.4,42,13.8,14.1
 2003/02/07, 6:15,16.4,42,13.8,14.2
 2003/02/07, 6:30,16.4,43,13.8,14.2
 2003/02/07, 6:45,16.4,42,13.8,14.2
 2003/02/07, 7:00,16.4,42,13.9,9.2
 2003/02/07, 7:15,16.6,42,14.1,9.1
 2003/02/07, 7:30,16.6,43,14.1,9.1
 2003/02/07, 7:45,13.6,36,12.5,9.2
 2003/02/07, 8:00,15.1,38,13.3,9.2
 2003/02/07, 8:15,15.3,39,13.4,9.3
 2003/02/07, 8:30,15.6,39,13.8,9.4
 2003/02/07, 8:45,15.6,41,14,9.4
 2003/02/07, 9:00,15.7,42,13.9,9.5
 2003/02/07, 9:15,15.8,42,14,9.6
 2003/02/07, 9:30,16,42,14.1,9.6
 2003/02/07, 9:45,16.2,43,14.2,9.7
 2003/02/07,10:00,16.2,43,14.2,9.8
 2003/02/07,10:15,16.3,43,14.4,9.9
 2003/02/07,10:30,16.3,43,14.3,9.9
 2003/02/07,10:45,16.5,43,14.3,10
 2003/02/07,11:00,16.5,43,14.4,10.1
 2003/02/07,11:15,16.4,43,14.5,10.2
 2003/02/07,11:30,16.4,43,14.5,10.3
 2003/02/07,11:45,16.4,42,14.4,10.4
 2003/02/07,12:00,16.4,42,14.4,10.5
 2003/02/07,12:15,16.4,42,14.5,10.5
 2003/02/07,12:30,16.5,42,14.5,10.6
 2003/02/07,12:45,16.4,42,14.5,10.7
 2003/02/07,13:00,16.4,42,14.5,10.8
 2003/02/07,13:15,16.4,42,14.6,10.9
 2003/02/07,13:30,16.4,42,14.6,11
 2003/02/07,13:45,16.4,42,14.7,11
 2003/02/07,14:00,16.5,41,14.7,11.1
 2003/02/07,14:15,16.4,41,14.7,11.2
 2003/02/07,14:30,16.4,41,14.7,11.3
 2003/02/07,14:45,16.5,40,14.8,11.4
 2003/02/07,15:00,16.5,40,14.8,11.4
 2003/02/07,15:15,16.5,40,14.8,11.5
 2003/02/07,15:30,16.6,39,14.8,11.6
 2003/02/07,15:45,16.6,39,14.9,11.6
 2003/02/07,16:00,16.5,39,15.1,11.7
 2003/02/07,16:15,16.6,39,15.2,11.8
 2003/02/07,16:30,16.6,39,15.1,11.9
 2003/02/07,16:45,16.6,39,15,11.9
 2003/02/07,17:00,16.5,39,15,12
 2003/02/07,17:15,16.6,39,15,12.1
 2003/02/07,17:30,16.6,39,15,12.1
 2003/02/07,17:45,16.5,40,14.8,12.2
 2003/02/07,18:00,16.5,40,14.8,12.3
 2003/02/07,18:15,16.4,41,14.8,12.3
 2003/02/07,18:30,16.4,41,14.8,12.4
 2003/02/07,18:45,16.4,42,14.8,12.5
 2003/02/07,19:00,16.4,42,14.8,12.5
 2003/02/07,19:15,16.4,42,14.7,12.6
 2003/02/07,19:30,16.4,42,14.8,12.6
 2003/02/07,19:45,16.4,42,14.7,12.7
 2003/02/07,20:00,16.4,43,14.7,12.7
 2003/02/07,20:15,16.4,43,14.7,12.8
 2003/02/07,20:30,16.4,42,14.7,12.9
 2003/02/07,20:45,16.4,42,14.7,12.9
 2003/02/07,21:00,16.5,43,14.6,13
 2003/02/07,21:15,16.5,43,14.6,13